Regional Weather Roundup
Issued by NWS Grand Forks, ND

Home | Current Version | Previous Version | Graphics & Text | Print | Product List | Glossary On
Versions: 1 2 3 4 5 6 7 8 9 10 11 12 13 14 15 16 17 18 19 20 21 22 23 24 25 26 27 28 29 30 31 32 33 34 35 36 37 38 39 40 41 42 43 44 45 46 47 48 49 50
341
ASUS43 KFGF 240631
RWRFGF
PRAIRIE TO PINES  WEATHER ROUNDUP
NATIONAL WEATHER SERVICE EASTERN NORTH DAKOTA/GRAND FORKS ND
100 AM CDT SUN JUL 24 2016

 **SATELLITE DATA USED TO AUGMENT SKY COVER AT AUTOMATED STATIONS**
 *****  WEATHER ACROSS EASTERN NORTH DAKOTA  *****

CITY           SKY/WX    TMP DP  RH WIND       PRES   REMARKS
GRAND FORKS    CLEAR     67  63  87 SW7       29.74R
6HR MIN TEMP:  65; 6HR MAX TEMP:  71;

GRAND FRKS AFB CLEAR     66  62  85 W9        29.76R
GRAND FRKS NWS   N/A     64 N/A N/A W7          N/A
DEVILS LAKE    CLEAR     67  60  78 W15G24    29.81R
6HR MIN TEMP:  67; 6HR MAX TEMP:  77;

FARGO          CLEAR     70  68  93 SW6       29.78S
WAHPETON ARPT  CLEAR     68  64  88 W6        29.81S
$$

 ***** WEATHER ACROSS CENTRAL AND WESTERN NORTH DAKOTA  *****

CITY           SKY/WX    TMP DP  RH WIND       PRES   REMARKS
BISMARCK       CLEAR     67  58  72 W6        29.94R
6HR MIN TEMP:  67; 6HR MAX TEMP:  84;

MINOT          CLEAR     69  59  70 W13       29.88R
6HR MIN TEMP:  69; 6HR MAX TEMP:  83;

JAMESTOWN      CLEAR     67  59  75 NW12      29.86R
6HR MIN TEMP:  66; 6HR MAX TEMP:  78;

MINOT AFB      CLEAR     62  59  90 W13       29.87R
GARRISON         N/A     62  58  86 NW10      29.92R
WILLISTON      CLEAR     63  53  70 W12       29.98R
6HR MIN TEMP:  63; 6HR MAX TEMP:  79;

DICKINSON      CLEAR     56  51  84 NW9       30.01R
6HR MIN TEMP:  56; 6HR MAX TEMP:  79;

HETTINGER      CLEAR     58  47  66 W5        30.04R
6HR MIN TEMP:  57; 6HR MAX TEMP:  86;

$$

 *****  OTHER AIRPORT OBSERVATIONS IN OUR AREA  *****

CITY           SKY/WX    TMP DP  RH WIND       PRES   REMARKS
WALHALLA       FAIR      66  63  88 W8        29.72S
GRAFTON AIRPOR FAIR      66  64  94 SW8       29.75R
VALLEY CITY AR   N/A     66  63  88 NW12      29.87R
CANDO          FAIR      63  63 100 W13       29.82R
CAVALIER APRT  FAIR      66  59  77 W8        29.72R
GWINNER        FAIR      64  64 100 W9        29.86R
SHEYENNE NWR     N/A     63  62  98 W3        29.95S
ROLLA            N/A     64  55  72 NW18G26   29.81R
 ***** THE ABOVE OBSERVATIONS ARE NON NWS ARE NOT QUALITY
       CONTROLLED AND MAY MIS-REPORT RAIN FOR SNOW...
$$

  *****  WEATHER ACROSS NORTHERN MINNESOTA  *****

CITY           SKY/WX    TMP DP  RH WIND       PRES   REMARKS
FLAG ISLAND    CLOUDY    70  66  88 SW3       29.67F
WARROAD        CLEAR     68  64  88 SW6       29.70R
ROSEAU         CLEAR     70  63  78 SW8       29.69S
HALLOCK        CLEAR     66  64  94 W8        29.70S
THF RVR FALLS  CLEAR     69  67  93 SW10      29.75S
6HR MIN TEMP:  69; 6HR MAX TEMP:  75;

BAUDETTE       CLOUDY    70  69  97 SW5       29.70S
6HR MIN TEMP:  70; 6HR MAX TEMP:  77; 6HR PCP:  0.25;

WASKISH        LGT RAIN  72  68  88 S8        29.72S
CROOKSTON      CLEAR     68  66  94 W8        29.76S
STEPHEN NDAWN    N/A     68  64  88 SW3         N/A
GREENBUSH NDAW   N/A     66  66 100 SW8         N/A
$$
  *****  WEATHER ACROSS CENTRAL AND WEST MINNESOTA  *****

CITY           SKY/WX    TMP DP  RH WIND       PRES   REMARKS
FOSSTON        CLEAR     66  66 100 S7        29.77S
BEMIDJI        CLOUDY    72  68  88 SW8       29.76R
PARK RAPIDS    CLEAR     68  65  90 NW8       29.77R
6HR MIN TEMP:  68; 6HR MAX TEMP:  79; 6HR PCP:  0.04;

ELBOW LAKE     FAIR      70  69  96 NW5       29.81S
6HR MIN TEMP:  69; 6HR MAX TEMP:  79; 6HR PCP:  0.09;

WADENA         PTCLDY    68  66  94 W6        29.78S
DETROIT LAKES  CLEAR     68  64  88 CALM      29.81S
MOORHEAD       CLEAR     70  68  94 SW6       29.80S
FERGUS FALLS   CLEAR     70  70 100 W7        29.82R
MORRIS MN      CLEAR     70  66  88 W5        29.81R
STAPLES        CLOUDY    70  68  94 CALM      29.77S
$$
  *****  WEATHER ELSEWHERE ACROSS MINNESOTA  *****

CITY           SKY/WX    TMP DP  RH WIND       PRES   REMARKS
DULUTH         CLOUDY    63  60  90 SE9       29.80S
6HR MIN TEMP:  61; 6HR MAX TEMP:  67;

INTRNTL FALLS  CLOUDY    70  64  81 VRB6      29.71S
6HR MIN TEMP:  70; 6HR MAX TEMP:  74;

ELY            MOCLDY    63  57  82 CALM      29.80R
CLOQUET        CLOUDY    63  61  94 E3        29.79F FOG
WHEATON        CLEAR     70  70 100 CALM      29.84R
BRAINERD       TSTM      67  65  93 S6        29.75F
6HR MIN TEMP:  66; 6HR MAX TEMP:  74; 6HR PCP:  0.96;

HIBBING        CLOUDY    64  63  96 SE9       29.75F FOG
6HR MIN TEMP:  65; 6HR MAX TEMP:  73;

ALEXANDRIA     CLOUDY    70  66  87 W8        29.81F
6HR MIN TEMP:  70; 6HR MAX TEMP:  79; 6HR PCP:  0.02;

SAINT CLOUD    CLOUDY    72  72 100 S9        29.74F
6HR MIN TEMP:  72; 6HR MAX TEMP:  76;

MINNEAPOLIS    CLOUDY    75  71  87 S7        29.77F
6HR MIN TEMP:  74; 6HR MAX TEMP:  76;

$$

  *****  WEATHER ACROSS SOUTH DAKOTA  *****

CITY           SKY/WX    TMP DP  RH WIND       PRES   REMARKS
SIOUX FALLS    CLEAR     78  70  76 N12       29.85R
6HR MIN TEMP:  78; 6HR MAX TEMP:  90;

BROOKINGS      PTCLDY    74  70  87 NW14      29.86R
WATERTOWN      PTCLDY    73  69  87 NW10      29.87R
6HR MIN TEMP:  73; 6HR MAX TEMP:  90;

HURON          CLEAR     67  65  93 W6        29.87R
6HR MIN TEMP:  67; 6HR MAX TEMP:  93;

SISSETON         N/A     69  67  93 NW5       29.82R
ABERDEEN       CLEAR     64  62  93 W3        29.87R
6HR MIN TEMP:  64; 6HR MAX TEMP:  86;

MITCHELL       PTCLDY    72  68  87 NW7       29.88R
PIERRE         PTCLDY    68  56  65 SW7       29.92R
6HR MIN TEMP:  66; 6HR MAX TEMP:  88;

MOBRIDGE       CLEAR     64  57  78 NW6       29.92R
RAPID CITY     CLEAR     59  42  53 NW9       30.07R
6HR MIN TEMP:  59; 6HR MAX TEMP:  87;

$$

  *****  SOME WEATHER IN NEARBY STATES *****

CITY           SKY/WX    TMP DP  RH WIND       PRES   REMARKS
GLASGOW MT     PTCLDY    62  51  67 SE6       30.02R
6HR MIN TEMP:  61; 6HR MAX TEMP:  78;

GREAT FALLS MT MOCLDY    61  39  44 W6        30.11R
6HR MIN TEMP:  61; 6HR MAX TEMP:  79;

CHEYENNE WY    MOCLDY    69  47  45 S12       30.22R
6HR MIN TEMP:  69; 6HR MAX TEMP:  81; 6HR PCP: TRACE;

SCOTTSBLUFF NE MOCLDY    68  57  68 E7        30.07R
6HR MIN TEMP:  67; 6HR MAX TEMP:  93;

OMAHA NE       MOCLDY    85  74  69 S6        29.82S HX  92
6HR MIN TEMP:  84; 6HR MAX TEMP:  92;

DES MOINES IA  CLOUDY    83  77  82 S8        29.83S HX  92
6HR MIN TEMP:  82; 6HR MAX TEMP:  90;

DAVENPORT IA   CLEAR     77  73  87 S10       29.90F
6HR MIN TEMP:  74; 6HR MAX TEMP:  85; 6HR PCP:  0.03;

CHICAGO IL     LGT RAIN  72  70  93 SE12      29.96F
6HR MIN TEMP:  70; 6HR MAX TEMP:  75; 6HR PCP:  1.07;

EAU CLAIRE WI  CLOUDY    70  69  97 SE6       29.82F
6HR MIN TEMP:  69; 6HR MAX TEMP:  73; 6HR PCP:  0.01;

LA CROSSE WI   MOCLDY    74  69  85 SE9       29.82F
6HR MIN TEMP:  73; 6HR MAX TEMP:  75;

$$

  *****  SOME NATIONAL WEATHER *****

CITY           SKY/WX    TMP DP  RH WIND       PRES   REMARKS
LA GUARDIA NY  PTCLDY    80  62  54 NE7       29.92R
6HR MIN TEMP:  80; 6HR MAX TEMP:  95;

RALEIGH NC     PTCLDY    76  73  91 SW6       30.01R
6HR MIN TEMP:  76; 6HR MAX TEMP:  88;

ATLANTA GA     MOCLDY    78  73  84 CALM      30.05S
6HR MIN TEMP:  78; 6HR MAX TEMP:  85;

NEW ORLEANS LA CLOUDY    84  76  76 CALM      29.96F HX  93
6HR MIN TEMP:  83; 6HR MAX TEMP:  92;

OKLAHOMA CITY  PTCLDY    78  68  71 S7        29.93R
6HR MIN TEMP:  78; 6HR MAX TEMP:  97;

ALBUQUERQUE NM CLOUDY    84  48  28 SW10      30.15S
6HR MIN TEMP:  83; 6HR MAX TEMP: 100; 6HR PCP: TRACE;

SALT LAKE CITY CLEAR     75  31  19 S6        30.03S
6HR MIN TEMP:  74; 6HR MAX TEMP:  94;

LOS ANGELES CA MOCLDY   C1F1C2F2C3F3C4F4C5F5C6F6C7F7C8F8C9F9CaFaCbFbCcFcCd!



USA.gov is the U.S. government's official web portal to all federal, state and local government web resources and services.